Location: Moscow Pond
(43.6842°N, 73.2366°W)
Time: 02:36:39
(UTC+00:00)

Cosmos 2233 Rocket - Pass Details

Date: 08 November 2025
Orbit: 953 x 989 km, 82.9° (Epoch: 04 December)

Event Time Altitude Azimuth Distance (km) Brightness Sun altitude
Rises 10:21:19 0° 350° (N) 3,711 6.8 -14.2°
Reaches altitude 10° 10:23:51 10° 349° (N) 2,756 6.2 -13.7°
Maximum altitude 10:30:10 76° 266° (W) 1,015 4.0 -12.6°
Drops below altitude 10° 10:36:23 10° 181° (S) 2,719 6.5 -11.5°
Sets 10:38:53 0° 180° (S) 3,657 7.2 -11.1°
